WetterOnline ( http://www.wetteronline.de )

Wetter aktuell Weinheim

Aktuelles Wetter: Waibstadt (237m)

6-stündlich | Neueste Meldungen
Ortszeit Temperatur Wetter
Di, 19.09. 20:00 11.7° C bedeckt
Di, 19.09. 14:00 12.9° C bewölkt
Di, 19.09. 8:00 8.1° C leichter Regen
Di, 19.09. 2:00 8.5° C bedeckt
Ortszeit Temperatur Wetter
Di, 19.09. 20:30 11.0° C bewölkt
Di, 19.09. 20:00 11.7° C bedeckt
Di, 19.09. 19:30 12.2° C bewölkt
Di, 19.09. 19:00 12.7° C bedeckt
Di, 19.09. 18:30 13.6° C bewölkt
Di, 19.09. 18:00 13.3° C bewölkt
Ortszeit Relative Feuchte Sichtweite
Di, 19.09. 20:00 81% 70 km
Di, 19.09. 14:00 78% 30 km
Di, 19.09. 8:00 97% 5.0 km
Di, 19.09. 2:00 95% 35 km
Ortszeit Relative Feuchte Sichtweite
Di, 19.09. 20:30 86% 55 km
Di, 19.09. 20:00 81% 70 km
Di, 19.09. 19:30 80% 60 km
Di, 19.09. 19:00 78% 60 km
Di, 19.09. 18:30 73% 70 km
Di, 19.09. 18:00 76% 40 km
Ortszeit Niederschlagsmenge Niederschlagsart
Di, 19.09. 20:00 0.1 l/m2 in 12 Std. Regen
Di, 19.09. 14:00 0.1 l/m2 in 6 Std. Regen
Di, 19.09. 8:00 0.6 l/m2 in 12 Std. Regen
Di, 19.09. 2:00 0.0 l/m2 in 6 Std. -
Ortszeit Niederschlagsmenge Niederschlagsart
Di, 19.09. 20:30 keine Meldung -
Di, 19.09. 20:00 0.0 l/m2 in 1 Std. Regen
Di, 19.09. 19:30 keine Meldung -
Di, 19.09. 19:00 0.0 l/m2 in 1 Std. -
Di, 19.09. 18:30 keine Meldung -
Di, 19.09. 18:00 0.0 l/m2 in 1 Std. -
Ortszeit Stärke Spitze Richtung
km/h Bft. km/h Grad Sektor
Di, 19.09. 20:00 9 2 20 250° W
Di, 19.09. 14:00 7 2 18 230° SW
Di, 19.09. 8:00 0 0 11 - -
Di, 19.09. 2:00 0 0 11 - -
Ortszeit Stärke Spitze Richtung
km/h Bft. km/h Grad Sektor
Di, 19.09. 20:30 9 2 13 250° W
Di, 19.09. 20:00 9 2 15 250° W
Di, 19.09. 19:30 9 2 13 250° W
Di, 19.09. 19:00 11 2 18 240° SW
Di, 19.09. 18:30 9 2 17 260° W
Di, 19.09. 18:00 13 3 20 250° W
Ortszeit Untergrenze Bedeckung Gattung
total tief tief mittel hoch
Di, 19.09. 20:00 2100 m 8/8 8/8 - - -
Di, 19.09. 14:00 570 m 7/8 7/8 - - -
Di, 19.09. 8:00 210 m 6/8 6/8 - - -
Di, 19.09. 2:00 1800 m 8/8 8/8 - - -
Ortszeit Bedeckungsgrad in Achtel und Wolkenuntergrenze
Di, 19.09. 20:30 7(2100m)
Di, 19.09. 20:00 8(2100m)
Di, 19.09. 19:30 6(1800m) 7(2100m)
Di, 19.09. 19:00 8(1500m)
Di, 19.09. 18:30 2(1440m) 7(1800m)
Di, 19.09. 18:00 3(750m) 7(1350m) 7(1500m)
Ortszeit Luftdruck NN (hPa) Tendenz (hPa in 3 Std.)
Di, 19.09. 20:00 1020 + 1,5
Di, 19.09. 14:00 1018 0,0
Di, 19.09. 8:00 1018 + 0,5
Di, 19.09. 2:00 1018 - 0,1
Ortszeit Luftdruck NN (hPa) Tendenz (hPa in 3 Std.)
Di, 19.09. 20:30 1020 + 1,7
Di, 19.09. 20:00 1020 + 1,5
Di, 19.09. 19:30 1019 + 0,9
Di, 19.09. 19:00 1019 + 0,6
Di, 19.09. 18:30 1018 + 0,4
Di, 19.09. 18:00 1018 + 0,3
Ortszeit Schneehöhe (cm)
Di, 19.09. 20:00 -
Di, 19.09. 14:00 -
Di, 19.09. 8:00 -
Di, 19.09. 2:00 -
Ortszeit Schneehöhe (cm)
Di, 19.09. 20:30 -
Di, 19.09. 20:00 -
Di, 19.09. 19:30 -
Di, 19.09. 19:00 -
Di, 19.09. 18:30 -
Di, 19.09. 18:00 -
Link zu dieser Seite / Seite empfehlen

Das Wetter in ...